Lapse_Rate
6.4 6.5 6.5 6.4 6.6 6.5 6.4 6.3 6.2 6.2 6.3 6.1 5.7 5.5 5.5 5.4 5.6 5.6 5.7 5.6 5.9 5.9 6.0 6.3 6.2 6.3 6.2 5.9 5.8 6.0 6.0 6.2
6.5 6.5 6.6 6.6 6.6 6.6 6.5 6.4 6.3 6.2 6.3 6.2 6.3 5.7 5.7 5.7 5.4 5.4 5.7 5.9 5.6 5.8 6.2 6.1 6.1 6.3 6.2 6.1 5.8 5.7 5.9 6.0
6.8 6.7 6.6 6.6 6.7 6.7 6.6 6.5 6.4 6.3 6.4 6.2 6.1 6.2 6.0 5.7 5.2 5.6 5.7 5.7 5.8 6.2 5.9 6.0 5.8 5.7 5.6 5.9 5.8 5.8 5.9 6.0
6.9 7.0 6.7 6.7 6.7 6.8 6.8 6.7 6.5 6.4 6.3 6.4 6.1 6.0 5.9 5.8 5.4 5.3 5.6 5.7 5.9 5.9 5.6 5.5 5.8 5.7 5.8 5.8 6.0 6.0 5.9 5.9
7.0 7.0 7.1 7.0 6.7 6.8 6.8 6.8 6.7 6.5 6.4 6.4 6.2 5.9 5.9 5.7 5.5 5.3 5.5 5.8 5.9 5.7 5.2 5.3 5.6 5.6 5.3 5.7 5.9 5.7 6.1 6.0
7.3 7.2 7.1 7.3 6.9 6.8 6.8 6.8 6.8 6.7 6.4 6.6 6.3 6.1 5.8 5.6 5.4 5.3 5.4 5.7 5.6 5.5 5.2 5.2 5.3 5.4 5.1 5.6 5.6 5.7 6.0 6.2
7.7 7.4 7.1 7.2 7.1 6.9 6.9 6.9 6.9 6.8 6.7 6.7 6.4 6.2 5.8 5.6 5.4 5.4 5.3 5.5 5.6 5.5 5.4 5.4 5.4 5.3 5.3 5.4 5.4 5.5 5.5 6.3
6.7 7.8 7.2 7.2 7.1 7.0 6.8 7.1 7.1 6.9 6.7 6.8 6.7 6.4 6.1 5.7 5.5 5.7 5.6 5.6 5.7 5.5 5.5 5.5 5.5 5.2 5.2 5.3 5.3 5.0 5.4 6.3
6.7 7.7 7.5 7.2 7.3 7.0 7.0 7.1 7.1 7.2 7.0 6.9 6.9 6.7 6.4 5.9 5.8 5.7 5.7 5.6 5.6 5.5 5.4 5.2 5.4 5.2 5.2 5.1 5.4 5.3 5.5 6.5
7.0 7.2 7.5 7.3 7.4 7.1 7.0 7.1 7.2 7.4 7.3 7.1 6.9 7.0 6.8 6.4 6.2 6.0 5.8 5.7 5.5 5.5 5.4 5.4 5.1 5.5 5.3 5.2 5.4 5.6 5.8 6.5
7.1 7.0 7.3 7.5 7.2 7.3 7.1 7.2 7.2 7.4 7.5 7.3 7.0 6.9 6.9 6.7 6.5 6.3 6.1 5.9 5.7 5.6 5.6 5.4 5.2 5.1 5.3 5.4 5.5 5.8 6.0 6.0
7.2 7.0 7.1 7.8 7.3 7.4 7.3 7.3 7.3 7.4 7.7 7.6 7.3 7.0 7.0 6.9 6.6 6.5 6.2 6.2 5.9 5.9 5.6 5.7 5.4 5.3 5.3 5.3 5.1 5.4 6.2 5.7
7.1 6.9 7.3 7.7 7.6 7.5 7.4 7.4 7.5 7.3 7.7 7.7 7.5 7.3 7.1 7.0 6.9 6.6 6.4 6.2 6.1 5.8 5.4 5.2 5.5 5.4 5.5 5.2 4.7 4.5 5.6 5.6
7.0 7.2 6.9 7.5 7.6 7.5 7.4 7.2 7.4 7.4 7.5 7.7 7.6 7.4 7.2 7.1 7.1 6.7 6.5 6.3 6.1 5.8 5.9 5.6 5.4 5.4 5.5 5.4 4.8 4.5 4.4 5.5
7.0 7.3 7.0 7.2 7.4 7.4 7.6 7.4 7.3 7.6 7.7 7.7 7.6 7.4 7.3 7.2 7.1 6.8 6.4 6.3 6.3 6.1 5.9 5.6 5.2 5.5 5.5 5.5 5.2 4.8 4.9 5.2
7.0 7.2 7.0 6.9 7.3 7.5 7.5 7.6 7.4 7.8 7.5 7.5 7.5 7.6 7.5 7.3 7.2 7.0 6.6 6.3 6.4 6.3 5.9 5.6 5.0 5.4 5.2 5.3 4.6 5.4 5.6 5.5
6.8 7.1 7.2 6.9 7.5 7.5 7.3 7.4 7.8 7.7 7.1 7.3 7.5 7.6 7.6 7.5 7.4 7.1 6.8 6.4 6.2 6.4 6.1 6.0 5.3 5.2 5.2 5.3 4.8 4.8 4.8 4.9
6.5 7.1 6.9 6.7 7.5 7.5 7.4 7.5 7.9 7.5 7.3 7.4 7.6 7.6 7.5 7.6 7.5 7.2 6.9 6.5 6.4 6.4 6.1 6.2 5.3 5.1 5.1 5.2 5.0 4.8 5.0 5.3
6.5 7.1 6.7 6.6 7.2 7.4 7.3 7.4 7.4 7.6 7.5 7.2 7.6 7.6 7.7 7.7 7.4 7.1 6.9 6.6 6.2 6.1 5.8 5.8 5.8 5.1 5.1 5.2 5.0 4.4 4.7 5.2
6.8 6.8 6.7 6.4 7.3 7.3 7.2 7.3 7.2 7.4 7.5 7.4 7.7 7.6 7.7 7.6 7.3 7.2 6.8 6.6 6.0 5.7 5.7 5.7 5.5 5.5 4.9 5.1 4.8 4.7 4.8 5.0
Wind_Speed
8 11 12 12 13 12 13 11 13 13 14 25 23 20 18 16 19 22 21 20 17 18 19 19 20 22 21 13 8 12 17 18
9 8 10 10 10 13 12 12 12 14 17 21 21 21 12 19 17 19 20 20 17 18 20 22 18 20 21 16 11 18 18 16
11 9 8 10 11 12 13 12 12 13 18 21 17 13 12 19 15 19 20 18 19 17 14 17 20 19 18 15 16 16 15 14
11 11 10 8 8 12 11 12 10 10 13 17 14 14 13 15 14 24 21 20 18 19 19 17 17 11 10 12 11 15 14 14
12 11 11 10 6 6 7 9 10 11 13 17 14 11 13 10 12 13 14 18 13 14 14 13 13 14 12 9 8 14 15 16
13 13 11 11 6 5 6 5 6 6 12 15 11 4 5 5 6 11 11 11 12 12 9 11 14 18 15 11 14 12 15 16
17 13 12 11 11 8 6 8 5 7 11 14 11 5 6 6 7 12 13 12 10 7 9 7 9 14 13 13 9 10 21 18
17 16 14 13 11 10 7 6 7 4 7 12 14 9 5 7 6 5 7 14 11 9 6 7 8 9 7 12 10 8 23 21
17 16 14 14 14 9 7 6 4 5 3 13 15 12 7 8 6 5 6 12 11 7 5 4 7 6 7 7 7 9 17 21
16 16 16 14 13 10 7 5 7 7 6 8 14 15 13 6 6 7 12 10 9 5 5 4 2 4 6 4 4 8 14 20
14 15 17 16 15 11 11 11 7 7 9 7 10 14 14 6 6 6 15 7 8 7 6 8 5 4 4 4 4 4 5 12
14 12 15 16 11 10 10 8 8 7 8 8 7 9 13 8 5 8 10 8 8 8 9 7 8 7 5 4 4 4 6 4
9 12 12 12 11 11 10 10 9 3 5 8 8 9 11 9 6 8 10 10 11 12 9 11 7 7 2 3 2 3 5 5
9 8 13 12 11 10 8 8 5 5 4 6 7 9 9 8 9 8 10 9 12 11 12 7 7 7 6 6 4 2 1 5
8 8 9 12 12 6 6 4 7 8 10 8 9 10 9 11 9 8 9 9 9 12 12 13 10 7 7 5 4 4 4 3
10 8 8 10 14 11 13 10 8 7 6 5 8 11 9 8 9 10 11 9 11 12 11 12 11 10 5 6 5 7 9 4
9 9 8 11 15 13 11 11 9 6 7 11 10 10 12 12 11 11 11 9 10 11 13 14 11 10 7 9 6 5 12 6
7 7 8 16 15 14 16 16 12 10 10 10 9 8 8 11 12 11 11 10 11 12 13 15 13 12 10 11 11 6 11 10
6 2 6 15 15 15 14 12 11 11 11 8 10 8 8 11 13 12 10 11 11 12 15 15 16 13 14 12 11 8 9 7
5 1 7 5 11 12 7 11 6 4 6 5 6 6 5 7 10 11 12 12 12 10 11 14 15 13 14 10 11 9 5 8
Wind_Direction
141 166 169 162 162 160 152 150 154 151 155 154 156 152 149 167 171 168 176 192 213 155 150 149 152 156 161 142 128 101 110 114
154 170 174 169 167 170 159 159 153 154 156 160 160 158 160 172 173 172 182 199 170 145 152 156 155 159 160 146 127 122 115 118
162 171 179 176 169 173 166 161 160 158 153 161 163 174 173 169 187 195 189 183 145 153 155 148 156 164 157 153 146 127 124 111
171 174 175 173 188 158 175 169 171 177 162 160 173 191 179 181 183 175 183 169 154 159 152 148 149 145 153 157 126 131 118 125
181 178 172 172 190 162 184 176 179 181 179 166 183 194 179 200 139 160 157 142 144 153 148 163 165 160 160 164 172 154 141 139
180 179 174 178 159 198 187 186 182 175 185 173 176 179 167 160 166 157 155 167 156 168 179 194 169 178 164 170 196 181 130 130
176 177 181 179 167 193 201 184 196 180 174 174 166 166 174 169 182 173 163 158 168 167 180 172 178 177 164 186 201 212 136 134
172 179 177 174 182 186 199 179 184 172 158 168 165 170 173 181 172 140 140 164 175 179 172 172 180 177 183 189 209 154 137 140
174 177 178 175 185 199 184 175 188 169 172 160 168 172 178 195 171 162 161 164 158 140 111 112 189 178 179 202 169 135 117 132
171 175 179 182 179 183 204 196 190 176 182 197 175 177 181 191 197 184 155 158 153 144 134 115 51 249 179 163 134 129 131 141
177 174 176 182 166 177 193 195 206 174 173 204 182 178 183 178 189 173 161 158 162 158 152 162 167 228 257 154 130 144 133 156
176 174 173 177 173 177 189 185 199 186 176 184 185 181 179 179 184 172 163 162 165 165 162 172 173 188 224 167 135 166 148 173
150 157 173 170 184 183 187 195 183 154 166 166 182 186 187 184 179 182 173 174 172 172 167 170 184 184 187 159 102 189 138 169
149 169 169 180 185 187 190 173 168 158 184 192 184 193 186 186 177 181 172 179 167 169 169 171 191 181 175 169 130 316 304 184
157 174 182 185 179 149 137 153 160 187 199 190 186 205 178 187 177 172 166 165 172 175 174 175 186 191 192 171 136 186 152 211
157 178 184 180 156 160 171 184 192 190 177 177 181 185 194 191 180 171 170 175 176 182 177 172 187 197 168 216 173 140 170 175
173 170 185 148 165 172 181 207 188 175 193 185 208 183 187 187 187 184 180 179 179 182 188 180 186 196 187 193 205 165 178 169
134 165 191 151 167 182 196 209 181 195 197 182 183 186 188 186 187 193 189 184 189 188 192 180 185 189 202 194 196 188 192 172
60 0 258 162 175 188 204 205 202 195 180 182 174 179 188 195 187 190 193 188 190 202 194 186 190 189 197 197 199 204 192 173
103 258 277 133 178 183 204 199 211 173 166 181 168 168 174 162 180 183 185 190 195 191 201 196 188 192 192 207 208 199 171 196